Time,TemperatureF,DewpointF,PressureIn,WindDirection,WindDirectionDegrees,WindSpeedMPH,WindSpeedGustMPH,Humidity,HourlyPrecipIn,Conditions,Clouds,dailyrainin,SoftwareType,DateUTC
2013-06-19 00:02:00,67.0,66.0,29.93,NNW,338,0.0,0.0,97,0.00,,,0.20,,2013-06-19 04:02:00,
2013-06-19 00:11:00,67.0,66.0,29.93,NNW,338,0.0,0.0,97,0.00,,,0.20,,2013-06-19 04:11:00,
2013-06-19 00:22:00,67.0,66.0,29.93,NNW,338,0.0,0.0,97,0.00,,,0.20,,2013-06-19 04:22:00,
2013-06-19 00:32:00,67.0,66.0,29.93,NNW,338,0.0,0.0,97,0.00,,,0.20,,2013-06-19 04:32:00,
2013-06-19 00:42:00,67.0,66.0,29.93,NNW,338,0.0,0.0,97,0.00,,,0.20,,2013-06-19 04:42:00,
2013-06-19 01:11:00,66.0,65.0,29.93,NNW,346,0.0,0.0,97,0.00,,,0.20,,2013-06-19 05:11:00,
2013-06-19 01:23:00,66.0,65.0,29.93,NNW,346,0.0,0.0,97,0.00,,,0.20,,2013-06-19 05:23:00,
2013-06-19 01:32:00,66.0,65.0,29.93,NNW,346,0.0,0.0,97,0.00,,,0.20,,2013-06-19 05:32:00,
2013-06-19 01:43:00,66.0,65.0,29.93,NNW,346,0.0,0.0,97,0.00,,,0.20,,2013-06-19 05:43:00,
2013-06-19 01:52:00,66.0,65.0,29.93,NNW,346,0.0,0.0,97,0.00,,,0.20,,2013-06-19 05:52:00,
2013-06-19 02:02:00,66.0,65.0,29.93,NNW,346,0.0,0.0,97,0.00,,,0.20,,2013-06-19 06:02:00,
2013-06-19 02:11:00,66.0,65.0,29.93,NNW,346,0.0,0.0,97,0.00,,,0.20,,2013-06-19 06:11:00,
2013-06-19 02:22:00,65.0,64.0,29.93,NNW,346,0.0,0.0,97,0.00,,,0.20,,2013-06-19 06:22:00,
2013-06-19 02:34:00,65.0,64.0,29.93,NNW,346,0.0,0.0,97,0.00,,,0.20,,2013-06-19 06:34:00,
2013-06-19 02:42:00,65.0,64.0,29.93,NNW,346,0.0,0.0,97,0.00,,,0.20,,2013-06-19 06:42:00,
2013-06-19 02:52:00,65.0,64.0,29.93,NNW,346,0.0,0.0,97,0.00,,,0.20,,2013-06-19 06:52:00,
2013-06-19 03:01:00,65.0,64.0,29.93,NNW,346,0.0,0.0,97,0.00,,,0.20,,2013-06-19 07:01:00,
2013-06-19 03:11:00,65.0,64.0,29.93,NNW,346,0.0,0.0,98,0.00,,,0.20,,2013-06-19 07:11:00,
2013-06-19 03:22:00,64.0,63.0,29.93,NNW,346,0.0,0.0,97,0.00,,,0.20,,2013-06-19 07:22:00,
2013-06-19 03:33:00,64.0,63.0,29.93,NNW,346,0.0,0.0,98,0.00,,,0.20,,2013-06-19 07:33:00,
2013-06-19 03:43:00,64.0,63.0,29.93,NNW,346,0.0,0.0,98,0.00,,,0.20,,2013-06-19 07:43:00,
2013-06-19 03:53:00,64.0,63.0,29.94,NNW,346,0.0,0.0,98,0.00,,,0.20,,2013-06-19 07:53:00,
2013-06-19 04:02:00,64.0,63.0,29.93,NNW,346,0.0,0.0,98,0.00,,,0.20,,2013-06-19 08:02:00,
2013-06-19 04:11:00,64.0,63.0,29.93,NNW,346,0.0,0.0,98,0.00,,,0.20,,2013-06-19 08:11:00,
2013-06-19 04:22:00,64.0,63.0,29.93,NNW,346,0.0,0.0,98,0.00,,,0.20,,2013-06-19 08:22:00,
2013-06-19 04:33:00,64.0,63.0,29.93,NNW,346,0.0,0.0,98,0.00,,,0.20,,2013-06-19 08:33:00,
2013-06-19 04:43:00,64.0,63.0,29.93,NNW,346,0.0,0.0,98,0.00,,,0.20,,2013-06-19 08:43:00,
2013-06-19 04:54:00,64.0,63.0,29.93,NNW,346,0.0,0.0,98,0.00,,,0.20,,2013-06-19 08:54:00,
2013-06-19 05:02:00,64.0,63.0,29.93,NNW,346,0.0,0.0,98,0.00,,,0.20,,2013-06-19 09:02:00,
2013-06-19 05:12:00,64.0,63.0,29.93,NNW,346,0.0,0.0,98,0.00,,,0.20,,2013-06-19 09:12:00,
2013-06-19 05:22:00,64.0,63.0,29.93,NNW,346,0.0,0.0,98,0.00,,,0.20,,2013-06-19 09:22:00,
2013-06-19 05:34:00,64.0,63.0,29.93,NNW,346,0.0,0.0,98,0.00,,,0.20,,2013-06-19 09:34:00,
2013-06-19 05:43:00,64.0,63.0,29.94,NNW,346,0.0,0.0,98,0.00,,,0.20,,2013-06-19 09:43:00,
2013-06-19 05:53:00,64.0,63.0,29.94,NNW,346,0.0,0.0,98,0.00,,,0.20,,2013-06-19 09:53:00,
2013-06-19 06:02:00,64.0,63.0,29.95,NNW,346,0.0,0.0,98,0.00,,,0.20,,2013-06-19 10:02:00,
2013-06-19 06:12:00,64.0,63.0,29.95,NNW,346,0.0,0.0,98,0.00,,,0.20,,2013-06-19 10:12:00,
2013-06-19 06:22:00,64.0,63.0,29.95,NNW,346,0.0,0.0,98,0.00,,,0.20,,2013-06-19 10:22:00,
2013-06-19 06:33:00,64.0,63.0,29.96,NNW,346,0.0,0.0,98,0.00,,,0.20,,2013-06-19 10:33:00,
2013-06-19 06:42:00,64.0,63.0,29.96,NNW,346,0.0,0.0,98,0.00,,,0.20,,2013-06-19 10:42:00,
2013-06-19 06:53:00,64.0,63.0,29.97,NNW,346,0.0,0.0,98,0.00,,,0.20,,2013-06-19 10:53:00,
2013-06-19 07:02:00,64.0,63.0,29.97,NNW,346,0.0,0.0,98,0.00,,,0.20,,2013-06-19 11:02:00,
2013-06-19 07:11:00,64.0,63.0,29.97,NNW,346,0.0,0.0,98,0.00,,,0.20,,2013-06-19 11:11:00,
2013-06-19 07:22:00,64.0,63.0,29.98,NNW,346,0.0,0.0,98,0.00,,,0.20,,2013-06-19 11:22:00,
2013-06-19 07:33:00,64.0,63.0,29.98,NNW,346,0.0,0.0,98,0.00,,,0.17,,2013-06-19 11:33:00,
2013-06-19 07:43:00,64.0,63.0,29.98,NNW,346,0.0,0.0,98,0.00,,,0.17,,2013-06-19 11:43:00,
2013-06-19 07:54:00,64.0,64.0,29.99,NNW,346,0.0,0.0,99,0.00,,,0.17,,2013-06-19 11:54:00,
2013-06-19 08:02:00,64.0,63.0,29.99,NW,324,0.0,0.0,98,0.00,,,0.17,,2013-06-19 12:02:00,
2013-06-19 08:12:00,64.0,63.0,29.99,NW,324,0.0,0.0,98,0.00,,,0.17,,2013-06-19 12:12:00,
2013-06-19 08:22:00,64.0,63.0,30.00,NW,324,0.0,0.0,98,0.00,,,0.17,,2013-06-19 12:22:00,
2013-06-19 08:34:00,64.0,63.0,30.00,NW,324,0.0,0.0,98,0.00,,,0.17,,2013-06-19 12:34:00,
2013-06-19 08:44:00,64.0,63.0,30.01,NW,324,0.0,0.0,98,0.00,,,0.17,,2013-06-19 12:44:00,
2013-06-19 08:53:00,65.0,64.0,30.01,NW,324,0.0,0.0,98,0.00,,,0.17,,2013-06-19 12:53:00,
2013-06-19 09:02:00,65.0,64.0,30.01,NW,324,0.0,0.0,98,0.00,,,0.17,,2013-06-19 13:02:00,
2013-06-19 09:12:00,65.0,64.0,30.02,NW,324,0.0,0.0,97,0.00,,,0.17,,2013-06-19 13:12:00,
2013-06-19 09:22:00,65.0,64.0,30.02,NW,324,0.0,0.0,98,0.00,,,0.17,,2013-06-19 13:22:00,
2013-06-19 09:33:00,65.0,64.0,30.02,NW,324,0.0,0.0,98,0.00,,,0.17,,2013-06-19 13:33:00,
2013-06-19 09:42:00,66.0,65.0,30.02,NW,324,0.0,0.0,97,0.00,,,0.15,,2013-06-19 13:42:00,
2013-06-19 09:54:00,66.0,65.0,30.02,NW,324,0.0,0.0,97,0.00,,,0.15,,2013-06-19 13:54:00,
2013-06-19 10:02:00,66.0,65.0,30.02,NW,324,0.0,0.0,97,0.00,,,0.15,,2013-06-19 14:02:00,
2013-06-19 10:12:00,67.0,66.0,30.02,NW,324,0.0,1.0,96,0.00,,,0.15,,2013-06-19 14:12:00,
2013-06-19 10:22:00,68.0,66.0,30.02,West,261,0.0,2.0,94,0.00,,,0.15,,2013-06-19 14:22:00,
2013-06-19 10:33:00,68.0,66.0,30.02,West,261,0.0,2.0,94,0.00,,,0.15,,2013-06-19 14:33:00,
2013-06-19 10:44:00,68.0,66.0,30.02,West,274,0.0,1.0,93,0.00,,,0.14,,2013-06-19 14:44:00,
2013-06-19 10:53:00,69.0,67.0,30.02,West,274,0.0,1.0,94,0.00,,,0.14,,2013-06-19 14:53:00,
2013-06-19 11:01:00,69.0,67.0,30.02,West,274,0.0,1.0,94,0.00,,,0.14,,2013-06-19 15:01:00,
2013-06-19 11:11:00,70.0,68.0,30.02,NNE,16,0.0,1.0,92,0.00,,,0.14,,2013-06-19 15:11:00,
2013-06-19 11:22:00,71.0,68.0,30.03,North,360,0.0,3.0,89,0.00,,,0.14,,2013-06-19 15:22:00,
2013-06-19 11:33:00,71.0,68.0,30.03,North,360,0.0,3.0,89,0.00,,,0.14,,2013-06-19 15:33:00,
2013-06-19 11:42:00,71.0,68.0,30.03,NW,317,0.0,1.0,91,0.00,,,0.14,,2013-06-19 15:42:00,
2013-06-19 11:53:00,72.0,68.0,30.04,North,10,0.0,0.0,87,0.00,,,0.14,,2013-06-19 15:53:00,
2013-06-19 12:01:00,72.0,68.0,30.04,North,10,0.0,0.0,87,0.00,,,0.14,,2013-06-19 16:01:00,
2013-06-19 12:11:00,71.0,67.0,30.04,NNW,334,0.0,1.0,87,0.00,,,0.14,,2013-06-19 16:11:00,
2013-06-19 12:22:00,72.0,66.0,30.04,ESE,121,0.0,2.0,82,0.00,,,0.14,,2013-06-19 16:22:00,
2013-06-19 12:34:00,72.0,66.0,30.04,ESE,121,0.0,2.0,82,0.00,,,0.14,,2013-06-19 16:34:00,
2013-06-19 12:43:00,74.0,69.0,30.04,NE,36,0.0,2.0,85,0.00,,,0.14,,2013-06-19 16:43:00,
2013-06-19 12:53:00,74.0,69.0,30.04,NE,36,0.0,1.0,85,0.00,,,0.14,,2013-06-19 16:53:00,
2013-06-19 13:02:00,74.0,69.0,30.04,NE,36,0.0,1.0,85,0.00,,,0.14,,2013-06-19 17:02:00,
2013-06-19 13:12:00,74.0,68.0,30.04,NW,318,0.0,2.0,82,0.00,,,0.14,,2013-06-19 17:12:00,
2013-06-19 13:22:00,74.0,69.0,30.04,NW,318,0.0,1.0,85,0.00,,,0.14,,2013-06-19 17:22:00,
2013-06-19 13:34:00,74.0,69.0,30.04,NW,318,0.0,1.0,85,0.00,,,0.14,,2013-06-19 17:34:00,
2013-06-19 13:43:00,74.0,69.0,30.04,NW,318,0.0,1.0,84,0.00,,,0.14,,2013-06-19 17:43:00,
2013-06-19 13:53:00,74.0,68.0,30.04,ENE,57,0.0,3.0,83,0.00,,,0.14,,2013-06-19 17:53:00,
2013-06-19 14:02:00,74.0,68.0,30.04,ENE,57,0.0,3.0,83,0.00,,,0.14,,2013-06-19 18:02:00,
2013-06-19 14:12:00,75.0,68.0,30.04,ENE,57,0.0,2.0,80,0.00,,,0.14,,2013-06-19 18:12:00,
2013-06-19 14:24:00,75.0,67.0,30.03,ENE,57,0.0,1.0,77,0.00,,,0.14,,2013-06-19 18:24:00,
2013-06-19 14:33:00,75.0,67.0,30.03,ENE,57,0.0,1.0,77,0.00,,,0.14,,2013-06-19 18:33:00,
2013-06-19 14:44:00,75.0,67.0,30.03,East,80,1.0,2.0,75,0.00,,,0.14,,2013-06-19 18:44:00,
2013-06-19 14:53:00,76.0,68.0,30.03,ENE,62,0.0,1.0,77,0.00,,,0.14,,2013-06-19 18:53:00,
2013-06-19 15:01:00,76.0,68.0,30.03,ENE,62,0.0,1.0,77,0.00,,,0.14,,2013-06-19 19:01:00,
2013-06-19 15:12:00,77.0,67.0,30.02,West,271,0.0,3.0,72,0.00,,,0.14,,2013-06-19 19:12:00,
2013-06-19 15:22:00,77.0,69.0,30.02,WNW,286,0.0,5.0,76,0.00,,,0.14,,2013-06-19 19:22:00,
2013-06-19 15:32:00,77.0,69.0,30.02,WNW,286,0.0,5.0,76,0.00,,,0.14,,2013-06-19 19:32:00,
2013-06-19 15:43:00,77.0,68.0,30.02,WNW,286,0.0,1.0,74,0.00,,,0.14,,2013-06-19 19:43:00,
2013-06-19 15:53:00,77.0,68.0,30.02,WNW,285,0.0,1.0,74,0.00,,,0.14,,2013-06-19 19:53:00,
2013-06-19 16:02:00,77.0,68.0,30.02,WNW,285,0.0,1.0,74,0.00,,,0.14,,2013-06-19 20:02:00,
2013-06-19 16:11:00,77.0,66.0,30.01,NW,304,0.0,4.0,70,0.00,,,0.14,,2013-06-19 20:11:00,
2013-06-19 16:22:00,79.0,67.0,30.01,NNE,14,0.0,3.0,66,0.00,,,0.14,,2013-06-19 20:22:00,
2013-06-19 16:33:00,79.0,67.0,30.01,NNE,14,0.0,3.0,66,0.00,,,0.14,,2013-06-19 20:33:00,
2013-06-19 16:42:00,79.0,66.0,30.02,East,88,0.0,3.0,65,0.00,,,0.14,,2013-06-19 20:42:00,
2013-06-19 16:52:00,80.0,66.0,30.01,SSW,201,0.0,2.0,63,0.00,,,0.14,,2013-06-19 20:52:00,
2013-06-19 17:02:00,80.0,66.0,30.01,SSW,201,0.0,2.0,63,0.00,,,0.14,,2013-06-19 21:02:00,
2013-06-19 17:12:00,81.0,68.0,30.02,SW,236,0.0,1.0,65,0.00,,,0.14,,2013-06-19 21:12:00,
2013-06-19 17:22:00,81.0,66.0,30.01,WNW,302,0.0,3.0,61,0.00,,,0.14,,2013-06-19 21:22:00,
2013-06-19 17:33:00,81.0,66.0,30.01,WNW,302,0.0,3.0,61,0.00,,,0.14,,2013-06-19 21:33:00,
2013-06-19 17:44:00,81.0,67.0,30.02,NW,308,0.0,1.0,63,0.00,,,0.05,,2013-06-19 21:44:00,
2013-06-19 17:52:00,81.0,71.0,30.02,North,10,0.0,1.0,71,0.00,,,0.05,,2013-06-19 21:52:00,
2013-06-19 18:02:00,81.0,71.0,30.02,North,10,0.0,1.0,71,0.00,,,0.05,,2013-06-19 22:02:00,
2013-06-19 18:11:00,81.0,66.0,30.01,West,262,0.0,2.0,60,0.00,,,0.05,,2013-06-19 22:11:00,
2013-06-19 18:22:00,81.0,71.0,30.01,West,262,0.0,1.0,71,0.00,,,0.05,,2013-06-19 22:22:00,
2013-06-19 18:34:00,81.0,71.0,30.01,West,262,0.0,1.0,71,0.00,,,0.05,,2013-06-19 22:34:00,
2013-06-19 18:43:00,80.0,70.0,30.01,West,262,0.0,1.0,72,0.00,,,0.05,,2013-06-19 22:43:00,
2013-06-19 18:53:00,79.0,71.0,30.01,West,262,0.0,0.0,76,0.00,,,0.05,,2013-06-19 22:53:00,
2013-06-19 19:02:00,79.0,71.0,30.01,West,262,0.0,0.0,76,0.00,,,0.05,,2013-06-19 23:02:00,
2013-06-19 19:12:00,78.0,71.0,30.01,West,262,0.0,0.0,78,0.00,,,0.05,,2013-06-19 23:12:00,
2013-06-19 19:23:00,77.0,71.0,30.01,West,262,0.0,0.0,82,0.00,,,0.05,,2013-06-19 23:23:00,
2013-06-19 19:33:00,77.0,71.0,30.01,West,262,0.0,0.0,82,0.00,,,0.05,,2013-06-19 23:33:00,
2013-06-19 19:43:00,76.0,70.0,30.02,West,262,0.0,0.0,82,0.00,,,0.00,,2013-06-19 23:43:00,
2013-06-19 19:52:00,74.0,70.0,30.03,West,262,0.0,0.0,86,0.00,,,0.00,,2013-06-19 23:52:00,
2013-06-19 20:01:00,73.0,69.0,30.03,West,262,0.0,0.0,88,0.00,,,0.00,,2013-06-20 00:01:00,
2013-06-19 20:12:00,73.0,69.0,30.03,West,262,0.0,0.0,88,0.00,,,0.00,,2013-06-20 00:12:00,
2013-06-19 20:22:00,72.0,69.0,30.03,West,262,0.0,0.0,90,0.00,,,0.00,,2013-06-20 00:22:00,
2013-06-19 20:33:00,72.0,68.0,30.03,West,262,0.0,1.0,88,0.00,,,0.00,,2013-06-20 00:33:00,
2013-06-19 20:44:00,72.0,68.0,30.03,West,262,0.0,1.0,88,0.00,,,0.00,,2013-06-20 00:44:00,
2013-06-19 20:52:00,72.0,68.0,30.04,West,262,0.0,1.0,87,0.00,,,0.00,,2013-06-20 00:52:00,
2013-06-19 21:02:00,73.0,68.0,30.04,West,262,0.0,1.0,85,0.00,,,0.00,,2013-06-20 01:02:00,
2013-06-19 21:11:00,73.0,68.0,30.04,West,262,0.0,1.0,85,0.00,,,0.00,,2013-06-20 01:11:00,
2013-06-19 21:22:00,72.0,67.0,30.05,West,262,0.0,1.0,85,0.00,,,0.00,,2013-06-20 01:22:00,
2013-06-19 21:33:00,72.0,67.0,30.05,West,262,0.0,1.0,85,0.00,,,0.00,,2013-06-20 01:33:00,
2013-06-19 21:44:00,72.0,68.0,30.05,West,262,0.0,1.0,87,0.00,,,0.00,,2013-06-20 01:44:00,
2013-06-19 21:53:00,72.0,68.0,30.06,West,262,0.0,1.0,88,0.01,,,0.01,,2013-06-20 01:53:00,
2013-06-19 22:02:00,72.0,68.0,30.06,West,262,0.0,1.0,88,0.01,,,0.01,,2013-06-20 02:02:00,
2013-06-19 22:11:00,71.0,68.0,30.07,West,262,0.0,0.0,91,0.07,,,0.07,,2013-06-20 02:11:00,
2013-06-19 22:24:00,70.0,68.0,30.08,West,262,0.0,0.0,93,0.13,,,0.13,,2013-06-20 02:24:00,
2013-06-19 22:34:00,70.0,68.0,30.08,West,262,0.0,0.0,93,0.13,,,0.13,,2013-06-20 02:34:00,
2013-06-19 22:43:00,69.0,67.0,30.09,West,262,0.0,0.0,94,0.14,,,0.14,,2013-06-20 02:43:00,
2013-06-19 22:52:00,69.0,68.0,30.09,West,262,0.0,0.0,95,0.13,,,0.14,,2013-06-20 02:52:00,
2013-06-19 23:02:00,69.0,68.0,30.09,West,262,0.0,0.0,95,0.13,,,0.14,,2013-06-20 03:02:00,
2013-06-19 23:11:00,68.0,67.0,30.09,West,262,0.0,1.0,95,0.07,,,0.14,,2013-06-20 03:11:00,
2013-06-19 23:22:00,68.0,67.0,30.10,West,262,0.0,0.0,96,0.01,,,0.14,,2013-06-20 03:22:00,
2013-06-19 23:33:00,67.0,66.0,30.11,NW,306,0.0,0.0,96,0.00,,,0.14,,2013-06-20 03:33:00,
2013-06-19 23:43:00,67.0,66.0,30.11,NW,306,0.0,0.0,96,0.00,,,0.14,,2013-06-20 03:43:00,
2013-06-19 23:54:00,67.0,66.0,30.10,NW,306,0.0,0.0,96,0.00,,,0.14,,2013-06-20 03:54:00,